ATLAS CENTAUR R/B

Satellite information

Favourite Embed

Satellite Type and Status

ROCKET BODYIN ORBIT

Key statistics

Satellite ATLAS CENTAUR R/B at a glance.

Uptime

19473

Days in orbit

Revolutions

≈ 14.8

Per day

Orbit

LEO

Low Earth Orbit

Inclination

35.0

Latest

Satellite identification and parameters

Extended collection of information and parameters for ATLAS CENTAUR R/B.

Object identification

Identified? True

Debris? False

Object name: ATLAS CENTAUR R/B

International designator: 1972-065B

Object number (NORAD): 6155

Object ID (CCSDS): 6155

Country: UNITED STATES OF AMERICA (US)

Current information (Y/N): Y

RCS size: LARGE

Orbital parameters

Period: 97.468 minutes

Inclination: 35.001 deg

SMA: 7015.665 km

Apoapsis: 661.418 km

Periapsis: 613.642 km

RAAN: 101.2077 deg

Eccentricy: 0.0034049

Argument of periapsis: 349.0024 deg

Mean anomaly: 10.993 deg

Mean motion: 14.77404821 rev/day

Mean motion (dot): 0.00002355 rev/day2

B* drag term: 0.000325785 1/REarth

Two-line elements (TLE)

Creation date: Dec. 12, 2025, 3:16 a.m.

Reference frame: TEME

Reference center: EARTH

Epoch: Dec. 11, 2025, 5:07 p.m. UTC

TLE line 0: 0 ATLAS CENTAUR R/B

TLE line 1: 1 06155U 72065B 25345.71360988 .00002355 00000-0 32579-3 0 9992

TLE line 2: 2 06155 35.0010 101.2077 0034049 349.0024 10.9930 14.77404821828242

Live tracking on map

Real-time ground track for satellite ATLAS CENTAUR R/B.

In-orbit conjunctions

A list of the most updated potential collisions computed for object ATLAS CENTAUR R/B.

Target Orbit TCA Probability of collision Miss distance Type
DELTA 2 R/B LEO 2025-08-06 04:13:01 0.0002892782 339.0 (m) ROCKET BODY
COSMOS 2251 DEB LEO 2025-07-17 23:19:44 0.0001719885 88.0 (m) DEBRIS
COSMOS 2251 DEB LEO 2025-05-19 19:58:36 0.0001115716 848.0 (m) DEBRIS

Associated space launch

Third Orbiting Astronomical Observatory satellite, equipped with an UV telescope and three X-ray telescopes.

ATLAS CENTAUR R/B was lifted into orbit during the mission ‘Atlas SLV-3C Centaur | Copernicus’, on board a Atlas SLV-3C Centaur space rocket.

The launch took place on Aug. 21, 1972, 10:28 a.m. from Launch Complex 36B.

For more information about the launch, click the button.

Launch to space Atlas SLV-3C Centaur | Copernicus
Atlas SLV-3C Centaur | Copernicus

Agency: N/A

Status: Launch Successful

Launch date: Aug. 21, 1972, 10:28 a.m. UTC

Rocket: Atlas SLV-3C Centaur

Launch pad: Launch Complex 36B

Location: Cape Canaveral SFS, FL, USA

...

Latest news about this satellite

There are no fresh news available about this satellite. Check back as we update our databases every day.


Newsletter sign-up

Weekly statistics, charts and insights to help you stay on top of the space industry.